Location: Frankfurt am Main
(50.1109°N, 8.6821°E)
Time: 18:11:16
(UTC+02:00)

ISS - Pass Details

Date: 21 May 2021
Orbit: 419 x 422 km, 51.6° (Epoch: 24 June)

Event Time Altitude Azimuth Distance (km) Brightness Sun altitude
Rises 22:01:38 0° 259° (W) 2,313 0.6 -6.8°
Reaches altitude 10° 22:03:45 10° 261° (W) 1,444 -0.5 -7.1°
Maximum altitude 22:06:58 77° 347° (NNW) 406 -3.7 -7.4°
Drops below altitude 10° 22:10:08 10° 75° (ENE) 1,409 -1.4 -7.8°
Sets 22:12:10 0° 77° (ENE) 2,250 -0.4 -8.0°
